Location: Memmingen
(47.9830°N, 10.1733°E)
Time: 08:07:51
(UTC+01:00)

ISS - Pass Details

Date: 09 January 2018
Orbit: 401 x 406 km, 51.6° (Epoch: 17 January)

Event Time Altitude Azimuth Distance (km) Brightness Sun altitude
Exits shadow 07:22:57 10° 290° (WNW) 1,490 -1.7 -7.3°
Reaches altitude 10° 07:23:01 10° 290° (WNW) 1,466 -1.7 -7.3°
Maximum altitude 07:26:17 67° 207° (SSW) 445 -3.6 -6.8°
Drops below altitude 10° 07:29:32 10° 125° (SE) 1,463 0.7 -6.4°
Sets 07:31:37 0° 123° (ESE) 2,321 2.6 -6.0°
